This is the latest recevied weather packets stored in our database for station/object YB2YEN-13. If no packets are shown the sender has not sent any weather packets the latest 1 day(s).
| Time | Temp. | Humidity | Pressure | Rain* | Wind** | Luminosity | Snow |
|---|---|---|---|---|---|---|---|
| 1778061647 | 30° C | 99% | 976 hPa | - | 0 m/s | 0 W/m² | - |
| 1778061325 | 30° C | 98% | 975 hPa | - | 0 m/s | 0 W/m² | - |
| 1778061003 | 30.56° C | 96% | 975 hPa | - | 0 m/s | 0 W/m² | - |
| 1778060681 | 30.56° C | 97% | 975 hPa | - | 0 m/s | 0 W/m² | - |
| 1778060359 | 30.56° C | 95% | 975 hPa | - | 0 m/s | 0 W/m² | - |
| 1778060037 | 30.56° C | 92% | 975 hPa | - | 0 m/s | 0 W/m² | - |
| 1778059715 | 30.56° C | 93% | 975 hPa | - | 0 m/s | 0 W/m² | - |
| 1778059393 | 30.56° C | 91% | 975 hPa | - | 0 m/s | 0 W/m² | - |
| 1778059071 | 31.67° C | 87% | 975 hPa | - | 0 m/s | 0 W/m² | - |
| 1778058749 | 31.67° C | 86% | 975 hPa | - | 0 m/s | 0 W/m² | - |
| 1778058427 | 32.22° C | 84% | 975 hPa | - | 0 m/s | 0 W/m² | - |
| 1778058105 | 33.33° C | 82% | 975 hPa | - | 0 m/s | 0 W/m² | - |
| 1778057783 | 32.78° C | 81% | 975 hPa | - | 0 m/s | 0 W/m² | - |
| 1778057461 | 33.33° C | 79% | 975 hPa | - | 0 m/s | 0 W/m² | - |
| 1778057139 | 32.78° C | 78% | 975 hPa | - | 0 m/s | 0 W/m² | - |
| 1778056817 | 33.89° C | 67% | 975 hPa | - | 0 m/s | 0 W/m² | - |
| 1778056495 | 32.78° C | 68% | 975 hPa | - | 0 m/s | 0 W/m² | - |
| 1778056173 | 32.78° C | 62% | 975 hPa | - | 0 m/s | 0 W/m² | - |
| 1778055851 | 32.78° C | 64% | 975 hPa | - | 0 m/s | 0 W/m² | - |
| 1778055528 | 33.89° C | 65% | 975 hPa | - | 0 m/s | 0 W/m² | - |
| 1778055206 | 33.89° C | 60% | 975 hPa | - | 0 m/s | 0 W/m² | - |
| 1778054884 | 33.89° C | 67% | 975 hPa | - | 0 m/s | 0 W/m² | - |
| 1778054562 | 33.89° C | 59% | 975 hPa | - | 0 m/s | 0 W/m² | - |
| 1778054240 | 34.44° C | 59% | 975 hPa | - | 0 m/s | 0 W/m² | - |
| 1778053918 | 33.89° C | 63% | 975 hPa | - | 0 m/s | 0 W/m² | - |
* Rain since midnight (hover to see other rain measurements)
** Current wind speed in m/s (hover to see current wind gust speed)